ANG185 AYPY-RPLL

Flight info

Callsign ANG185
Flight time N/A
Altitude 38000
Route STARF1 STARF H539 KIBAV B462 BIK/N0462F400 B462 TAC W9 AKDAP AKDAP3R
Aircraft A339/H-SADE1E2E3GHIJ3J5M1P2RWXY/LB2D1

Departure

Time 2026-04-29 15:12
Airport Port Moresby Jacksons International Airport (AYPY)

Arrival

Time N/A
Airport Ninoy Aquino International Airport (RPLL)
Time Latitude Longitude Altitude Speed Heading
2026-04-29 14:51 -9.43916 147.21236 109 ft 0 kts 238°
2026-04-29 15:01 -9.43913 147.21244 109 ft 2 kts 228°
2026-04-29 15:02 -9.43897 147.21256 109 ft 2 kts 306°
2026-04-29 15:02 -9.43890 147.21264 110 ft 2 kts 62°
2026-04-29 15:02 -9.43906 147.21271 110 ft 2 kts 133°
2026-04-29 15:02 -9.43887 147.21256 110 ft 0 kts 354°
2026-04-29 15:05 -9.43886 147.21256 109 ft 0 kts 355°
2026-04-29 15:06 -9.43878 147.21270 109 ft 3 kts 55°
2026-04-29 15:06 -9.43857 147.21325 111 ft 13 kts 67°
2026-04-29 15:06 -9.43784 147.21364 111 ft 12 kts 341°
2026-04-29 15:06 -9.43705 147.21314 109 ft 15 kts 326°
2026-04-29 15:07 -9.43613 147.21250 108 ft 17 kts 326°
2026-04-29 15:07 -9.43506 147.21180 106 ft 19 kts 327°
2026-04-29 15:07 -9.43393 147.21109 106 ft 19 kts 332°
2026-04-29 15:07 -9.43285 147.21105 106 ft 14 kts 36°
2026-04-29 15:08 -9.43220 147.21183 106 ft 15 kts 58°
2026-04-29 15:08 -9.43165 147.21270 106 ft 15 kts 57°
2026-04-29 15:08 -9.43146 147.21301 106 ft 0 kts 58°
2026-04-29 15:10 -9.43145 147.21303 106 ft 2 kts 58°
2026-04-29 15:10 -9.43129 147.21334 107 ft 8 kts 66°
2026-04-29 15:11 -9.43135 147.21402 108 ft 12 kts 115°
2026-04-29 15:11 -9.43239 147.21486 108 ft 45 kts 148°
2026-04-29 15:11 -9.43757 147.21804 112 ft 126 kts 149°
2026-04-29 15:11 -9.44689 147.22383 225 ft 178 kts 148°
2026-04-29 15:12 -9.45795 147.22960 1010 ft 179 kts 161°
2026-04-29 15:12 -9.46940 147.23452 1877 ft 178 kts 150°
2026-04-29 15:12 -9.48009 147.24160 2478 ft 192 kts 144°
2026-04-29 15:12 -9.49129 147.24983 2888 ft 212 kts 143°
2026-04-29 15:13 -9.50397 147.25884 3278 ft 232 kts 146°
2026-04-29 15:13 -9.51809 147.26815 3641 ft 252 kts 148°
2026-04-29 15:13 -9.53360 147.27779 3956 ft 268 kts 149°
2026-04-29 15:13 -9.54969 147.28756 4622 ft 268 kts 148°
2026-04-29 15:14 -9.56634 147.29560 5335 ft 268 kts 163°
2026-04-29 15:14 -9.58505 147.29675 5908 ft 274 kts 187°
2026-04-29 15:14 -9.60302 147.28987 6448 ft 283 kts 211°
2026-04-29 15:14 -9.61710 147.27575 6993 ft 288 kts 236°
2026-04-29 15:15 -9.62448 147.25680 7526 ft 292 kts 261°
2026-04-29 15:15 -9.62355 147.23638 8126 ft 293 kts 285°
2026-04-29 15:15 -9.61461 147.21778 8595 ft 295 kts 311°
2026-04-29 15:15 -9.59902 147.20477 9256 ft 292 kts 333°
2026-04-29 15:16 -9.58077 147.19576 9834 ft 293 kts 336°
2026-04-29 15:16 -9.56286 147.18540 10285 ft 301 kts 328°
2026-04-29 15:16 -9.54578 147.17201 10445 ft 319 kts 321°
2026-04-29 15:16 -9.52948 147.15627 10587 ft 336 kts 316°
2026-04-29 15:17 -9.51301 147.13875 10814 ft 348 kts 314°
2026-04-29 15:17 -9.49643 147.12062 11294 ft 350 kts 314°
2026-04-29 15:17 -9.47985 147.10245 11807 ft 352 kts 314°
2026-04-29 15:17 -9.46315 147.08418 12325 ft 354 kts 314°
2026-04-29 15:18 -9.44632 147.06584 12824 ft 356 kts 314°
2026-04-29 15:18 -9.42935 147.04741 13284 ft 359 kts 314°
2026-04-29 15:18 -9.41225 147.02885 13786 ft 361 kts 314°
2026-04-29 15:18 -9.39526 147.01044 14233 ft 363 kts 314°
2026-04-29 15:19 -9.37792 146.99163 14680 ft 365 kts 314°
2026-04-29 15:19 -9.36058 146.97280 15106 ft 367 kts 314°
2026-04-29 15:19 -9.34303 146.95379 15544 ft 369 kts 314°
2026-04-29 15:19 -9.32562 146.93495 15965 ft 371 kts 314°
2026-04-29 15:20 -9.30796 146.91586 16397 ft 373 kts 314°
2026-04-29 15:20 -9.29012 146.89658 16818 ft 375 kts 314°
2026-04-29 15:20 -9.27219 146.87720 17233 ft 376 kts 314°
2026-04-29 15:20 -9.25420 146.85776 17637 ft 379 kts 314°
2026-04-29 15:21 -9.23614 146.83824 18055 ft 380 kts 314°
2026-04-29 15:21 -9.21837 146.81900 18510 ft 380 kts 314°
2026-04-29 15:21 -9.20030 146.79947 18888 ft 381 kts 314°
2026-04-29 15:21 -9.18201 146.77972 19110 ft 386 kts 314°
2026-04-29 15:22 -9.16366 146.75988 19457 ft 389 kts 314°
2026-04-29 15:22 -9.14488 146.73966 19736 ft 393 kts 314°
2026-04-29 15:22 -9.12629 146.71958 20242 ft 390 kts 314°
2026-04-29 15:22 -9.10755 146.69938 20466 ft 396 kts 314°
2026-04-29 15:23 -9.08895 146.67931 20857 ft 397 kts 314°
2026-04-29 15:23 -9.06984 146.65875 21127 ft 402 kts 314°
2026-04-29 15:23 -9.05062 146.63806 21479 ft 404 kts 314°
2026-04-29 15:23 -9.03128 146.61723 21782 ft 408 kts 314°
2026-04-29 15:24 -9.01176 146.59622 22080 ft 411 kts 314°
2026-04-29 15:24 -8.99217 146.57512 22476 ft 413 kts 313°
2026-04-29 15:24 -8.97239 146.55382 22787 ft 416 kts 314°
2026-04-29 15:24 -8.95251 146.53241 23139 ft 418 kts 313°
2026-04-29 15:25 -8.93267 146.51107 23410 ft 422 kts 313°
2026-04-29 15:25 -8.91246 146.48932 23729 ft 424 kts 313°
2026-04-29 15:25 -8.89220 146.46752 24023 ft 426 kts 313°
2026-04-29 15:25 -8.87189 146.44566 24348 ft 427 kts 313°
2026-04-29 15:26 -8.85144 146.42367 24630 ft 429 kts 313°
2026-04-29 15:26 -8.83096 146.40165 24938 ft 431 kts 313°
2026-04-29 15:26 -8.81040 146.37954 25231 ft 433 kts 313°
2026-04-29 15:26 -8.78969 146.35727 25519 ft 435 kts 313°
2026-04-29 15:27 -8.76891 146.33494 25806 ft 437 kts 313°
2026-04-29 15:27 -8.74829 146.31278 26079 ft 439 kts 313°
2026-04-29 15:27 -8.72728 146.29021 26391 ft 440 kts 313°
2026-04-29 15:27 -8.70618 146.26754 26663 ft 442 kts 313°
2026-04-29 15:28 -8.68504 146.24484 26958 ft 444 kts 313°
2026-04-29 15:28 -8.67099 146.22975 27130 ft 445 kts 313°
2026-04-29 15:28 -8.64270 146.19937 27516 ft 448 kts 313°
2026-04-29 15:28 -8.62132 146.17642 27780 ft 450 kts 313°
2026-04-29 15:29 -8.59970 146.15322 28056 ft 452 kts 313°
2026-04-29 15:29 -8.55645 146.10681 28628 ft 455 kts 313°
2026-04-29 15:30 -8.51283 146.05996 29125 ft 459 kts 313°
2026-04-29 15:30 -8.49096 146.03637 29371 ft 461 kts 313°
2026-04-29 15:30 -8.46913 146.01286 29595 ft 464 kts 313°
2026-04-29 15:30 -8.44696 145.98904 29896 ft 465 kts 313°
2026-04-29 15:31 -8.42473 145.96520 30132 ft 467 kts 313°
2026-04-29 15:31 -8.40246 145.94133 30417 ft 467 kts 313°
2026-04-29 15:31 -8.38012 145.91741 30673 ft 469 kts 313°
2026-04-29 15:31 -8.35769 145.89341 30961 ft 470 kts 313°
2026-04-29 15:32 -8.33519 145.86933 31179 ft 472 kts 313°
2026-04-29 15:32 -8.31282 145.84541 31480 ft 472 kts 313°
2026-04-29 15:32 -8.29032 145.82137 31787 ft 473 kts 313°
2026-04-29 15:32 -8.26767 145.79716 32102 ft 472 kts 313°
2026-04-29 15:33 -8.24499 145.77292 32287 ft 475 kts 313°
2026-04-29 15:33 -8.22217 145.74854 32459 ft 478 kts 313°
2026-04-29 15:33 -8.19930 145.72410 32671 ft 479 kts 313°
2026-04-29 15:33 -8.17669 145.69993 32796 ft 481 kts 313°
2026-04-29 15:34 -8.15346 145.67512 33070 ft 479 kts 313°
2026-04-29 15:34 -8.10775 145.62628 33229 ft 484 kts 313°
2026-04-29 15:35 -8.06132 145.57669 33479 ft 485 kts 313°
2026-04-29 15:35 -8.03813 145.55192 33607 ft 485 kts 313°
2026-04-29 15:35 -8.01496 145.52719 33782 ft 485 kts 313°
2026-04-29 15:35 -7.99180 145.50247 33990 ft 483 kts 313°
2026-04-29 15:36 -7.96877 145.47790 34160 ft 481 kts 313°
2026-04-29 15:36 -7.94584 145.45343 34336 ft 480 kts 313°
2026-04-29 15:36 -7.92288 145.42893 34431 ft 480 kts 313°
2026-04-29 15:36 -7.89991 145.40443 34575 ft 480 kts 313°
2026-04-29 15:37 -7.87720 145.38020 34655 ft 481 kts 313°
2026-04-29 15:37 -7.85426 145.35574 34858 ft 478 kts 313°
2026-04-29 15:37 -7.83134 145.33131 34970 ft 478 kts 313°
2026-04-29 15:37 -7.80841 145.30686 35165 ft 477 kts 313°
2026-04-29 15:38 -7.78557 145.28251 35255 ft 478 kts 313°
2026-04-29 15:38 -7.76269 145.25812 35362 ft 478 kts 313°
2026-04-29 15:38 -7.73981 145.23375 35506 ft 478 kts 313°
2026-04-29 15:38 -7.71727 145.20975 35662 ft 477 kts 313°
2026-04-29 15:39 -7.69448 145.18546 35816 ft 476 kts 313°
2026-04-29 15:39 -7.67173 145.16124 35984 ft 476 kts 314°
2026-04-29 15:39 -7.64899 145.13702 36145 ft 475 kts 314°
2026-04-29 15:39 -7.62626 145.11282 36301 ft 474 kts 314°
2026-04-29 15:40 -7.60364 145.08874 36485 ft 473 kts 314°
2026-04-29 15:40 -7.58097 145.06462 36658 ft 473 kts 314°
2026-04-29 15:40 -7.55833 145.04053 36821 ft 472 kts 314°
2026-04-29 15:40 -7.53572 145.01647 36983 ft 471 kts 314°
2026-04-29 15:41 -7.51315 144.99246 37156 ft 471 kts 314°
2026-04-29 15:41 -7.49062 144.96850 37307 ft 470 kts 314°
2026-04-29 15:41 -7.46839 144.94486 37458 ft 470 kts 314°
2026-04-29 15:41 -7.44593 144.92096 37627 ft 469 kts 314°
2026-04-29 15:42 -7.42345 144.89705 37795 ft 468 kts 314°
2026-04-29 15:42 -7.40108 144.87329 37925 ft 467 kts 314°
2026-04-29 15:42 -7.37864 144.84945 37940 ft 470 kts 314°
2026-04-29 15:43 -7.33337 144.80136 37921 ft 473 kts 314°
2026-04-29 15:43 -7.28811 144.75329 37924 ft 475 kts 314°
2026-04-29 15:44 -7.25021 144.71302 37929 ft 476 kts 314°
2026-04-29 15:44 -7.20459 144.66460 37928 ft 477 kts 314°
2026-04-29 15:45 -7.15881 144.61603 37951 ft 477 kts 314°
2026-04-29 15:45 -7.11880 144.56313 37972 ft 478 kts 304°
2026-04-29 15:46 -7.08237 144.50670 37976 ft 479 kts 305°
2026-04-29 15:46 -7.04492 144.45117 37961 ft 479 kts 306°
2026-04-29 15:47 -7.00698 144.39596 37970 ft 478 kts 306°
2026-04-29 15:47 -6.96912 144.34100 37954 ft 478 kts 306°
2026-04-29 15:48 -6.93151 144.28638 37952 ft 478 kts 306°
2026-04-29 15:48 -6.89357 144.23130 37981 ft 478 kts 306°
2026-04-29 15:49 -6.85572 144.17635 38002 ft 478 kts 306°
2026-04-29 15:49 -6.81791 144.12148 38014 ft 478 kts 306°
2026-04-29 15:50 -6.78001 144.06651 38013 ft 478 kts 306°
2026-04-29 15:50 -6.74208 144.01150 38029 ft 477 kts 306°
2026-04-29 15:51 -6.70418 143.95657 38007 ft 478 kts 306°
2026-04-29 15:51 -6.66620 143.90159 37991 ft 479 kts 306°
2026-04-29 15:52 -6.62812 143.84643 38004 ft 480 kts 306°
2026-04-29 15:52 -6.59006 143.79132 38011 ft 480 kts 306°
2026-04-29 15:53 -6.55223 143.73659 38012 ft 480 kts 306°
2026-04-29 15:53 -6.51414 143.68147 38034 ft 479 kts 306°
2026-04-29 15:54 -6.47599 143.62628 38058 ft 480 kts 306°
2026-04-29 15:54 -6.43779 143.57106 38060 ft 480 kts 306°